Find Beidou DW 31

NORAD ID: 43246 Int'l Des: 2018-029 Owner: CNSA Country: CN Constellation: BeiDou operational
MEOCIRCULAR

現在のビュー

3D地球を読み込み中...

Beidou DW 31について

説明を読み込み中...

次回通過

Passes for default location (London). Set your location on the main map for personalized predictions.

高度履歴

Loading altitude history...

軌道要素

1 43246U 18029B 26148.01561522 -.00000100 00000-0 00000+0 0 9993
2 43246 54.2105 300.6796 0004324 39.6861 320.3160 1.86229076 55506
Epoch: May 28, 2026 • Age: 59 hours

現在のステータス

高度 21546.0 km
速度 3.78 km/s
衛星直下点 -22.11°S, 79.32°E
打ち上げ日 Mar 29, 2018
運用期間 8.1 years
タイプ navigation

打ち上げグループ

Unknown Vehicle • BeiDou Launch 28 • 2 satellites

技術仕様

分類 Payload
質量 1014.00 kg
乾燥質量 850.00 kg
総質量 1014.00 kg
長さ 2.20 m
直径 1.70 m
スパン 10.00 m
形状 Box + 2 Pan
製造者 SECM
バスタイプ BD-3M2
フェーズステータス In Orbit
所有者/国 CNSA/CN

Most Searched